Weather History for Doylestown, PA

Change the Weather History Date:

Saturday, September 14, 2013

  Actual Average (KTTN) Record (KTTN)
Temperature  
Mean Temperature 54 °F 67 °F  
Max Temperature 63 °F 77 °F 91 °F (1915)
Min Temperature 46 °F 57 °F 41 °F (1985)
Degree Days  
Heating Degree Days 10 1  
Month to date heating degree days 7  
Since 1 July heating degree days 10  
Cooling Degree Days 0 3  
Month to date cooling degree days 69  
Year to date cooling degree days 925  
Growing Degree Days 4 (Base 50)    
Moisture  
Dew Point 46 °F    
Average Humidity 72    
Maximum Humidity 96    
Minimum Humidity 56    
Precipitation  
Precipitation 0.00 in 0.18 in 3.07 in (1966)
Month to date precipitation 1.71  
Year to date precipitation 32.69  
Sea Level Pressure  
Sea Level Pressure 30.03 in    
Wind  
Wind Speed 6 mph (NNW)    
Max Wind Speed 12 mph    
Max Gust Speed 23 mph    
Visibility 10 miles    
Events      
T = Trace of Precipitation, MM = Missing Value Source: NWS Daily Summary

Daily Weather History Graph

Daily Weather History Graph

Search for Another Location

Airport:

Trip Planner

Search our weather history database for the weather conditions in past years. The results will help you decide how hot, cold, wet, or windy it might be!

Date:

Astronomy

Sep. 14, 2013 Rise Set
Actual Time 6:40 AM EDT 7:10 PM EDT
Civil Twilight 6:13 AM EDT 7:37 PM EDT
Nautical Twilight 5:40 AM EDT 8:10 PM EDT
Astronomical Twilight 5:07 AM EDT 8:43 PM EDT
Moon 3:50 PM EDT (9/14) 1:09 AM EDT (9/14)
Length of Visible Light 13h 24m
Length of Day
12h 30m
Waxing Gibbous, 72% of the Moon is Illuminated
Sep 14
Waxing Gibbous
Sep 19
Full
Sep 26
Last Quarter
Oct 4
New
Oct 11
First Quarter

Hourly Weather History & Observations

Time (EDT) Temp. Dew Point Humidity Pressure Visibility Wind Dir Wind Speed Gust Speed Precip Events Conditions
12:54 AM 54.0 °F 48.0 °F 80% 29.91 in 10.0 mi NW 5.8 mph - N/A   Clear
1:54 AM 53.1 °F 46.9 °F 80% 29.91 in 10.0 mi Variable 3.5 mph - N/A   Clear
2:54 AM 53.1 °F 46.9 °F 80% 29.91 in 10.0 mi Variable 3.5 mph - N/A   Partly Cloudy
3:54 AM 52.0 °F 46.0 °F 80% 29.91 in 10.0 mi NNW 5.8 mph - N/A   Clear
4:54 AM 52.0 °F 46.0 °F 80% 29.92 in 10.0 mi NNW 5.8 mph - N/A   Clear
5:54 AM 52.0 °F 46.0 °F 80% 29.94 in 10.0 mi NNW 3.5 mph - N/A   Partly Cloudy
6:54 AM 51.1 °F 46.0 °F 83% 29.97 in 10.0 mi North 3.5 mph - N/A   Clear
7:54 AM 53.1 °F 45.0 °F 74% 29.99 in 10.0 mi NNW 8.1 mph - N/A   Clear
8:54 AM 55.9 °F 44.1 °F 64% 30.00 in 10.0 mi North 10.4 mph 23.0 mph N/A   Clear
9:54 AM 57.9 °F 45.0 °F 62% 30.02 in 10.0 mi North 8.1 mph 17.3 mph N/A   Partly Cloudy
10:54 AM 62.1 °F 46.9 °F 58% 30.03 in 10.0 mi NNW 8.1 mph - N/A   Mostly Cloudy
11:54 AM 63.0 °F 46.9 °F 56% 30.03 in 10.0 mi NNW 5.8 mph - N/A   Mostly Cloudy
12:54 PM 61.0 °F 46.0 °F 58% 30.04 in 10.0 mi North 11.5 mph 17.3 mph N/A   Overcast
1:54 PM 63.0 °F 46.9 °F 56% 30.04 in 10.0 mi North 10.4 mph 19.6 mph N/A   Overcast
2:54 PM 61.0 °F 46.9 °F 60% 30.04 in 10.0 mi NNW 9.2 mph 16.1 mph N/A   Overcast
3:54 PM 62.1 °F 46.0 °F 56% 30.05 in 10.0 mi NW 8.1 mph - N/A   Mostly Cloudy
4:54 PM 60.1 °F 46.0 °F 60% 30.07 in 10.0 mi NW 8.1 mph 18.4 mph N/A   Mostly Cloudy
5:54 PM 57.9 °F 46.9 °F 67% 30.09 in 10.0 mi North 8.1 mph - N/A   Overcast
6:54 PM 55.9 °F 45.0 °F 67% 30.10 in 10.0 mi NNW 5.8 mph - N/A   Mostly Cloudy
7:54 PM 53.1 °F 46.0 °F 77% 30.12 in 10.0 mi NNW 3.5 mph - N/A   Scattered Clouds
8:54 PM 52.0 °F 45.0 °F 77% 30.14 in 10.0 mi North 3.5 mph - N/A   Clear
9:54 PM 50.0 °F 44.1 °F 80% 30.14 in 10.0 mi NW 3.5 mph - N/A   Clear
10:54 PM 46.0 °F 45.0 °F 96% 30.15 in 10.0 mi Calm Calm - N/A   Clear
11:54 PM 46.0 °F 45.0 °F 96% 30.17 in 10.0 mi Calm Calm - N/A   Clear